Time,TemperatureF,DewpointF,PressureIn,WindDirection,WindDirectionDegrees,WindSpeedMPH,WindSpeedGustMPH,Humidity,HourlyPrecipIn,Conditions,Clouds,dailyrainin,SoftwareType,DateUTC
2013-07-14 00:01:00,55.4,48.7,30.12,NNW,339,0.0,0.0,78,0.00,,---,0.01,VWS V13.00,2013-07-14 07:01:00,
2013-07-14 00:06:00,55.3,48.6,30.12,NNW,339,0.0,0.0,78,0.00,,---,0.01,VWS V13.00,2013-07-14 07:06:00,
2013-07-14 00:11:00,55.1,48.7,30.12,NNW,339,0.0,0.0,79,0.00,,---,0.00,VWS V13.00,2013-07-14 07:11:00,
2013-07-14 00:16:00,55.0,48.6,30.12,NNW,339,0.0,0.0,79,0.00,,---,0.00,VWS V13.00,2013-07-14 07:16:00,
2013-07-14 00:21:00,54.8,48.8,30.12,NNW,339,0.0,0.0,80,0.00,,---,0.00,VWS V13.00,2013-07-14 07:21:00,
2013-07-14 00:26:00,54.7,48.7,30.12,NNW,339,0.0,0.0,80,0.00,,---,0.00,VWS V13.00,2013-07-14 07:26:00,
2013-07-14 00:31:00,54.7,49.0,30.12,NNW,339,0.0,0.0,81,0.00,,---,0.00,VWS V13.00,2013-07-14 07:31:00,
2013-07-14 00:36:00,54.4,48.7,30.12,NNW,339,0.0,0.0,81,0.00,,---,0.00,VWS V13.00,2013-07-14 07:36:00,
2013-07-14 00:41:00,54.4,48.7,30.12,NNW,339,0.0,0.0,81,0.00,,---,0.00,VWS V13.00,2013-07-14 07:41:00,
2013-07-14 00:46:00,54.1,48.4,30.12,NNW,339,0.0,0.0,81,0.00,,---,0.00,VWS V13.00,2013-07-14 07:46:00,
2013-07-14 00:51:00,54.1,48.7,30.13,NNW,339,0.0,0.0,82,0.00,,---,0.00,VWS V13.00,2013-07-14 07:51:00,
2013-07-14 00:56:00,53.9,48.5,30.13,NNW,339,0.0,0.0,82,0.00,,---,0.00,VWS V13.00,2013-07-14 07:56:00,
2013-07-14 01:01:00,53.8,48.8,30.13,NNW,339,0.0,0.0,83,0.00,,---,0.00,VWS V13.00,2013-07-14 08:01:00,
2013-07-14 01:06:00,53.6,48.6,30.13,NNW,339,0.0,0.0,83,0.00,,---,0.00,VWS V13.00,2013-07-14 08:06:00,
2013-07-14 01:11:00,53.5,48.5,30.13,NNW,339,0.0,0.0,83,0.00,,---,0.00,VWS V13.00,2013-07-14 08:11:00,
2013-07-14 01:16:00,53.3,48.6,30.13,NNW,339,0.0,0.0,84,0.00,,---,0.00,VWS V13.00,2013-07-14 08:16:00,
2013-07-14 01:21:00,53.3,48.6,30.13,NNW,339,0.0,0.0,84,0.00,,---,0.00,VWS V13.00,2013-07-14 08:21:00,
2013-07-14 01:26:00,53.2,48.5,30.13,NNW,339,0.0,0.0,84,0.00,,---,0.00,VWS V13.00,2013-07-14 08:26:00,
2013-07-14 01:31:00,53.1,48.4,30.13,NNW,339,0.0,0.0,84,0.00,,---,0.00,VWS V13.00,2013-07-14 08:31:00,
2013-07-14 01:36:00,53.1,48.7,30.13,NNW,339,0.0,0.0,85,0.00,,---,0.00,VWS V13.00,2013-07-14 08:36:00,
2013-07-14 01:41:00,52.9,48.5,30.13,NNW,339,0.0,0.0,85,0.00,,---,0.00,VWS V13.00,2013-07-14 08:41:00,
2013-07-14 01:46:00,52.8,48.7,30.13,NNW,339,0.0,0.0,86,0.00,,---,0.00,VWS V13.00,2013-07-14 08:46:00,
2013-07-14 01:51:00,52.8,48.7,30.13,NNW,339,0.0,0.0,86,0.00,,---,0.00,VWS V13.00,2013-07-14 08:51:00,
2013-07-14 01:56:00,52.6,48.5,30.13,NNW,339,0.0,0.0,86,0.00,,---,0.00,VWS V13.00,2013-07-14 08:56:00,
2013-07-14 02:01:00,52.5,48.4,30.13,NNW,339,0.0,0.0,86,0.00,,---,0.00,VWS V13.00,2013-07-14 09:01:00,
2013-07-14 02:06:00,52.5,48.4,30.14,NNW,339,0.0,0.0,86,0.00,,---,0.00,VWS V13.00,2013-07-14 09:06:00,
2013-07-14 02:11:00,52.3,48.5,30.14,NNW,339,0.0,0.0,87,0.00,,---,0.00,VWS V13.00,2013-07-14 09:11:00,
2013-07-14 02:16:00,52.2,48.5,30.14,NNW,339,0.0,0.0,87,0.00,,---,0.00,VWS V13.00,2013-07-14 09:16:00,
2013-07-14 02:21:00,52.2,48.5,30.14,NNW,339,0.0,0.0,87,0.00,,---,0.00,VWS V13.00,2013-07-14 09:21:00,
2013-07-14 02:26:00,52.0,48.3,30.14,NNW,339,0.0,0.0,87,0.00,,---,0.00,VWS V13.00,2013-07-14 09:26:00,
2013-07-14 02:31:00,51.9,48.5,30.14,NNW,339,0.0,0.0,88,0.00,,---,0.00,VWS V13.00,2013-07-14 09:31:00,
2013-07-14 02:36:00,51.7,48.3,30.13,NNW,339,0.0,0.0,88,0.00,,---,0.00,VWS V13.00,2013-07-14 09:36:00,
2013-07-14 02:40:00,51.7,48.3,30.13,NNW,339,0.0,0.0,88,0.00,,---,0.00,VWS V13.00,2013-07-14 09:40:00,
2013-07-14 02:45:00,51.6,48.2,30.13,NNW,339,0.0,0.0,88,0.00,,---,0.00,VWS V13.00,2013-07-14 09:45:00,
2013-07-14 02:50:00,51.4,48.0,30.13,NNW,339,0.0,0.0,88,0.00,,---,0.00,VWS V13.00,2013-07-14 09:50:00,
2013-07-14 02:55:00,51.4,48.3,30.13,NNW,339,0.0,0.0,89,0.00,,---,0.00,VWS V13.00,2013-07-14 09:55:00,
2013-07-14 03:00:00,51.3,48.2,30.13,NNW,339,0.0,0.0,89,0.00,,---,0.00,VWS V13.00,2013-07-14 10:00:00,
2013-07-14 03:05:00,51.3,48.2,30.13,NNW,339,0.0,0.0,89,0.00,,---,0.00,VWS V13.00,2013-07-14 10:05:00,
2013-07-14 03:10:00,51.1,48.0,30.13,NNW,339,0.0,0.0,89,0.00,,---,0.00,VWS V13.00,2013-07-14 10:10:00,
2013-07-14 03:15:00,51.1,48.0,30.13,NNW,339,0.0,0.0,89,0.00,,---,0.00,VWS V13.00,2013-07-14 10:15:00,
2013-07-14 03:20:00,51.0,47.9,30.12,NNW,339,0.0,0.0,89,0.00,,---,0.00,VWS V13.00,2013-07-14 10:20:00,
2013-07-14 03:25:00,51.0,47.9,30.12,NNW,339,0.0,0.0,89,0.00,,---,0.00,VWS V13.00,2013-07-14 10:25:00,
2013-07-14 03:30:00,50.8,47.7,30.12,NNW,339,0.0,0.0,89,0.00,,---,0.00,VWS V13.00,2013-07-14 10:30:00,
2013-07-14 03:31:00,50.8,47.7,30.12,NNW,339,0.0,0.0,89,0.00,,---,0.00,VWS V13.00,2013-07-14 10:31:00,
2013-07-14 03:36:00,50.7,47.6,30.12,NNW,339,0.0,0.0,89,0.00,,---,0.00,VWS V13.00,2013-07-14 10:36:00,
2013-07-14 03:41:00,50.7,47.6,30.12,NNW,339,0.0,0.0,89,0.00,,---,0.00,VWS V13.00,2013-07-14 10:41:00,
2013-07-14 03:46:00,50.5,47.4,30.12,NNW,339,0.0,0.0,89,0.00,,---,0.00,VWS V13.00,2013-07-14 10:46:00,
2013-07-14 03:51:00,50.4,47.6,30.13,NNW,339,0.0,0.0,90,0.00,,---,0.00,VWS V13.00,2013-07-14 10:51:00,
2013-07-14 03:56:00,50.4,47.6,30.13,NNW,339,0.0,0.0,90,0.00,,---,0.00,VWS V13.00,2013-07-14 10:56:00,
2013-07-14 04:01:00,50.2,47.4,30.13,NNW,339,0.0,0.0,90,0.00,,---,0.00,VWS V13.00,2013-07-14 11:01:00,
2013-07-14 04:06:00,50.2,47.4,30.13,NNW,339,0.0,0.0,90,0.00,,---,0.00,VWS V13.00,2013-07-14 11:06:00,
2013-07-14 04:11:00,50.1,47.3,30.13,NNW,339,0.0,0.0,90,0.00,,---,0.00,VWS V13.00,2013-07-14 11:11:00,
2013-07-14 04:16:00,49.9,47.1,30.13,NNW,339,0.0,0.0,90,0.00,,---,0.00,VWS V13.00,2013-07-14 11:16:00,
2013-07-14 04:21:00,49.8,47.3,30.13,NNW,339,0.0,0.0,91,0.00,,---,0.00,VWS V13.00,2013-07-14 11:21:00,
2013-07-14 04:26:00,49.8,47.3,30.13,NNW,339,0.0,0.0,91,0.00,,---,0.00,VWS V13.00,2013-07-14 11:26:00,
2013-07-14 04:31:00,49.6,47.1,30.13,NNW,339,0.0,0.0,91,0.00,,---,0.00,VWS V13.00,2013-07-14 11:31:00,
2013-07-14 04:36:00,49.5,47.0,30.13,NNW,339,0.0,0.0,91,0.00,,---,0.00,VWS V13.00,2013-07-14 11:36:00,
2013-07-14 04:41:00,49.5,47.0,30.13,NNW,339,0.0,0.0,91,0.00,,---,0.00,VWS V13.00,2013-07-14 11:41:00,
2013-07-14 04:46:00,49.4,46.9,30.13,NNW,339,0.0,0.0,91,0.00,,---,0.00,VWS V13.00,2013-07-14 11:46:00,
2013-07-14 04:51:00,49.4,46.9,30.13,NNW,339,0.0,0.0,91,0.00,,---,0.00,VWS V13.00,2013-07-14 11:51:00,
2013-07-14 04:56:00,49.4,46.9,30.13,NNW,339,0.0,0.0,91,0.00,,---,0.00,VWS V13.00,2013-07-14 11:56:00,
2013-07-14 05:01:00,49.2,46.7,30.13,NNW,339,0.0,0.0,91,0.00,,---,0.00,VWS V13.00,2013-07-14 12:01:00,
2013-07-14 05:06:00,49.2,46.7,30.13,NNW,339,0.0,0.0,91,0.00,,---,0.00,VWS V13.00,2013-07-14 12:06:00,
2013-07-14 05:11:00,49.1,46.9,30.13,NNW,339,0.0,0.0,92,0.00,,---,0.00,VWS V13.00,2013-07-14 12:11:00,
2013-07-14 05:16:00,49.1,46.6,30.13,NNW,339,0.0,0.0,91,0.00,,---,0.00,VWS V13.00,2013-07-14 12:16:00,
2013-07-14 05:21:00,48.9,46.7,30.13,NNW,339,0.0,0.0,92,0.00,,---,0.00,VWS V13.00,2013-07-14 12:21:00,
2013-07-14 05:26:00,48.9,46.7,30.13,NNW,339,0.0,0.0,92,0.00,,---,0.00,VWS V13.00,2013-07-14 12:26:00,
2013-07-14 05:31:00,48.8,46.6,30.13,NNW,339,0.0,0.0,92,0.00,,---,0.00,VWS V13.00,2013-07-14 12:31:00,
2013-07-14 05:36:00,48.8,46.6,30.13,NNW,339,0.0,0.0,92,0.00,,---,0.00,VWS V13.00,2013-07-14 12:36:00,
2013-07-14 05:41:00,48.6,46.4,30.13,NNW,339,0.0,0.0,92,0.00,,---,0.00,VWS V13.00,2013-07-14 12:41:00,
2013-07-14 05:46:00,48.6,46.4,30.13,NNW,339,0.0,0.0,92,0.00,,---,0.00,VWS V13.00,2013-07-14 12:46:00,
2013-07-14 05:51:00,48.6,46.4,30.13,NNW,339,0.0,0.0,92,0.00,,---,0.00,VWS V13.00,2013-07-14 12:51:00,
2013-07-14 05:56:00,48.6,46.4,30.13,NNW,339,0.0,0.0,92,0.00,,---,0.00,VWS V13.00,2013-07-14 12:56:00,
2013-07-14 06:01:00,48.5,46.3,30.13,NNW,339,0.0,0.0,92,0.00,,---,0.00,VWS V13.00,2013-07-14 13:01:00,
2013-07-14 06:06:00,48.5,46.3,30.14,NNW,339,0.0,0.0,92,0.00,,---,0.00,VWS V13.00,2013-07-14 13:06:00,
2013-07-14 06:11:00,48.5,46.3,30.14,NNW,339,0.0,0.0,92,0.00,,---,0.00,VWS V13.00,2013-07-14 13:11:00,
2013-07-14 06:16:00,48.5,46.3,30.14,NNW,339,0.0,0.0,92,0.00,,---,0.00,VWS V13.00,2013-07-14 13:16:00,
2013-07-14 06:21:00,48.5,46.3,30.14,NNW,339,0.0,0.0,92,0.00,,---,0.00,VWS V13.00,2013-07-14 13:21:00,
2013-07-14 06:26:00,48.6,46.7,30.14,NNW,339,0.0,0.0,93,0.00,,---,0.00,VWS V13.00,2013-07-14 13:26:00,
2013-07-14 06:31:00,48.6,46.7,30.14,NNW,339,0.0,0.0,93,0.00,,---,0.00,VWS V13.00,2013-07-14 13:31:00,
2013-07-14 06:36:00,48.6,46.7,30.13,NNW,339,0.0,0.0,93,0.00,,---,0.00,VWS V13.00,2013-07-14 13:36:00,
2013-07-14 06:41:00,48.8,46.9,30.13,NNW,337,0.0,0.0,93,0.00,,---,0.00,VWS V13.00,2013-07-14 13:41:00,
2013-07-14 06:46:00,48.8,46.9,30.13,NNW,337,0.0,0.0,93,0.00,,---,0.00,VWS V13.00,2013-07-14 13:46:00,
2013-07-14 06:51:00,48.8,46.9,30.14,NNW,339,0.0,0.0,93,0.00,,---,0.00,VWS V13.00,2013-07-14 13:51:00,
2013-07-14 06:55:00,48.9,47.0,30.14,NNW,339,0.0,0.0,93,0.00,,---,0.00,VWS V13.00,2013-07-14 13:55:00,
2013-07-14 07:00:00,48.9,47.2,30.14,NNW,339,0.0,0.0,94,0.00,,---,0.00,VWS V13.00,2013-07-14 14:00:00,
2013-07-14 07:05:00,49.1,47.5,30.14,NNW,339,0.0,0.0,94,0.00,,---,0.00,VWS V13.00,2013-07-14 14:05:00,
2013-07-14 07:10:00,49.2,47.5,30.14,NNW,339,0.0,0.0,94,0.00,,---,0.00,VWS V13.00,2013-07-14 14:10:00,
2013-07-14 07:15:00,49.4,47.8,30.14,NNW,339,0.0,0.0,94,0.00,,---,0.00,VWS V13.00,2013-07-14 14:15:00,
2013-07-14 07:20:00,49.5,47.8,30.14,NNW,339,0.0,0.0,94,0.00,,---,0.00,VWS V13.00,2013-07-14 14:20:00,
2013-07-14 07:25:00,49.6,48.0,30.14,NNW,339,0.0,0.0,94,0.00,,---,0.00,VWS V13.00,2013-07-14 14:25:00,
2013-07-14 07:30:00,49.8,48.2,30.14,NNW,339,0.0,0.0,94,0.00,,---,0.00,VWS V13.00,2013-07-14 14:30:00,
2013-07-14 07:35:00,50.1,48.4,30.14,NNW,339,0.0,0.0,94,0.00,,---,0.00,VWS V13.00,2013-07-14 14:35:00,
2013-07-14 07:40:00,50.1,48.4,30.14,NNW,339,0.0,0.0,94,0.00,,---,0.00,VWS V13.00,2013-07-14 14:40:00,
2013-07-14 07:45:00,50.4,49.0,30.14,NNW,339,0.0,0.0,95,0.00,,---,0.00,VWS V13.00,2013-07-14 14:45:00,
2013-07-14 07:50:00,50.8,49.4,30.14,NNW,339,0.0,0.0,95,0.00,,---,0.00,VWS V13.00,2013-07-14 14:50:00,
2013-07-14 07:55:00,51.1,49.7,30.14,NNW,339,0.0,0.0,95,0.00,,---,0.00,VWS V13.00,2013-07-14 14:55:00,
2013-07-14 08:00:00,51.4,50.0,30.14,NNW,339,0.0,0.0,95,0.00,,---,0.00,VWS V13.00,2013-07-14 15:00:00,
2013-07-14 08:05:00,51.9,50.5,30.14,NNW,339,0.0,0.0,95,0.00,,---,0.00,VWS V13.00,2013-07-14 15:05:00,
2013-07-14 08:10:00,52.3,50.9,30.14,NNW,339,0.0,0.0,95,0.00,,---,0.00,VWS V13.00,2013-07-14 15:10:00,
2013-07-14 08:15:00,53.1,51.7,30.14,NNW,339,0.0,0.0,95,0.00,,---,0.00,VWS V13.00,2013-07-14 15:15:00,
2013-07-14 08:20:00,53.6,52.2,30.14,NNW,339,0.0,0.0,95,0.00,,---,0.00,VWS V13.00,2013-07-14 15:20:00,
2013-07-14 08:25:00,54.4,53.0,30.14,NNW,339,0.0,0.0,95,0.00,,---,0.00,VWS V13.00,2013-07-14 15:25:00,
2013-07-14 08:30:00,55.0,53.6,30.14,NNW,339,0.0,0.0,95,0.00,,---,0.00,VWS V13.00,2013-07-14 15:30:00,
2013-07-14 08:35:00,55.7,54.0,30.14,NNW,339,0.0,0.0,94,0.00,,---,0.00,VWS V13.00,2013-07-14 15:35:00,
2013-07-14 08:40:00,56.3,54.0,30.14,NNW,339,0.0,0.0,92,0.00,,---,0.00,VWS V13.00,2013-07-14 15:40:00,
2013-07-14 08:45:00,57.0,54.1,30.14,NNW,339,0.0,0.0,90,0.00,,---,0.00,VWS V13.00,2013-07-14 15:45:00,
2013-07-14 08:50:00,58.1,53.6,30.14,NNW,339,0.0,0.0,85,0.00,,---,0.00,VWS V13.00,2013-07-14 15:50:00,
2013-07-14 08:55:00,58.9,53.1,30.14,NNW,339,0.0,0.0,81,0.00,,---,0.00,VWS V13.00,2013-07-14 15:55:00,
2013-07-14 09:00:00,59.6,53.1,30.14,NNW,339,0.0,0.0,79,0.00,,---,0.00,VWS V13.00,2013-07-14 16:00:00,
2013-07-14 09:05:00,60.7,52.7,30.14,NNW,339,0.0,0.0,75,0.00,,---,0.00,VWS V13.00,2013-07-14 16:05:00,
2013-07-14 09:10:00,61.8,52.7,30.13,NNW,339,0.0,1.0,72,0.00,,---,0.00,VWS V13.00,2013-07-14 16:10:00,
2013-07-14 09:15:00,62.9,52.6,30.13,NNW,339,0.0,1.0,69,0.00,,---,0.00,VWS V13.00,2013-07-14 16:15:00,
2013-07-14 09:20:00,63.7,52.5,30.13,NNW,339,0.0,1.0,67,0.00,,---,0.00,VWS V13.00,2013-07-14 16:20:00,
2013-07-14 09:25:00,64.2,53.0,30.13,NNW,339,0.0,1.0,67,0.00,,---,0.00,VWS V13.00,2013-07-14 16:25:00,
2013-07-14 09:30:00,64.0,52.8,30.13,NNW,339,0.0,1.0,67,0.00,,---,0.00,VWS V13.00,2013-07-14 16:30:00,
2013-07-14 09:35:00,64.2,53.0,30.13,North,10,0.0,1.0,67,0.00,,---,0.00,VWS V13.00,2013-07-14 16:35:00,
2013-07-14 09:40:00,64.5,53.7,30.12,North,10,0.0,0.0,68,0.00,,---,0.00,VWS V13.00,2013-07-14 16:40:00,
2013-07-14 09:45:00,65.2,53.6,30.12,North,10,0.0,0.0,66,0.00,,---,0.00,VWS V13.00,2013-07-14 16:45:00,
2013-07-14 09:50:00,66.0,54.3,30.12,North,10,0.0,0.0,66,0.00,,---,0.00,VWS V13.00,2013-07-14 16:50:00,
2013-07-14 09:55:00,66.6,54.1,30.12,North,10,0.0,0.0,64,0.00,,---,0.00,VWS V13.00,2013-07-14 16:55:00,
2013-07-14 10:00:00,67.3,54.3,30.12,North,10,0.0,0.0,63,0.00,,---,0.00,VWS V13.00,2013-07-14 17:00:00,
2013-07-14 10:05:00,68.1,53.7,30.12,North,6,0.0,0.0,60,0.00,,---,0.00,VWS V13.00,2013-07-14 17:05:00,
2013-07-14 10:10:00,68.3,53.0,30.12,North,6,0.0,0.0,58,0.00,,---,0.00,VWS V13.00,2013-07-14 17:10:00,
2013-07-14 10:15:00,68.4,53.5,30.12,NNE,31,0.0,1.0,59,0.00,,---,0.00,VWS V13.00,2013-07-14 17:15:00,
2013-07-14 10:20:00,68.6,51.8,30.12,NNE,31,0.0,1.0,55,0.00,,---,0.00,VWS V13.00,2013-07-14 17:20:00,
2013-07-14 10:25:00,68.9,53.1,30.12,NNE,31,0.0,1.0,57,0.00,,---,0.00,VWS V13.00,2013-07-14 17:25:00,
2013-07-14 10:30:00,69.3,53.4,30.12,NNE,31,0.0,1.0,57,0.00,,---,0.00,VWS V13.00,2013-07-14 17:30:00,
2013-07-14 10:35:00,69.4,53.5,30.12,NE,34,0.0,1.0,57,0.00,,---,0.00,VWS V13.00,2013-07-14 17:35:00,
2013-07-14 10:40:00,69.6,53.2,30.11,NE,34,0.0,0.0,56,0.00,,---,0.00,VWS V13.00,2013-07-14 17:40:00,
2013-07-14 10:45:00,70.1,52.7,30.11,North,0,0.0,1.0,54,0.00,,---,0.00,VWS V13.00,2013-07-14 17:45:00,
2013-07-14 10:50:00,70.8,52.3,30.11,North,356,0.0,1.0,52,0.00,,---,0.00,VWS V13.00,2013-07-14 17:50:00,
2013-07-14 10:55:00,70.3,51.3,30.11,NW,325,0.0,1.0,51,0.00,,---,0.00,VWS V13.00,2013-07-14 17:55:00,
2013-07-14 11:00:00,70.3,52.9,30.11,NNW,342,0.0,1.0,54,0.00,,---,0.00,VWS V13.00,2013-07-14 18:00:00,
2013-07-14 11:05:00,70.8,51.3,30.11,NNW,347,0.0,1.0,50,0.00,,---,0.00,VWS V13.00,2013-07-14 18:05:00,
2013-07-14 11:10:00,70.9,52.4,30.11,NNW,347,0.0,0.0,52,0.00,,---,0.00,VWS V13.00,2013-07-14 18:10:00,
2013-07-14 11:15:00,71.8,52.2,30.11,NNW,347,0.0,0.0,50,0.00,,---,0.00,VWS V13.00,2013-07-14 18:15:00,
2013-07-14 11:20:00,72.3,53.2,30.11,North,354,0.0,0.0,51,0.00,,---,0.00,VWS V13.00,2013-07-14 18:20:00,
2013-07-14 11:25:00,72.8,51.4,30.11,North,354,0.0,1.0,47,0.00,,---,0.00,VWS V13.00,2013-07-14 18:25:00,
2013-07-14 11:30:00,72.8,52.0,30.11,NNW,340,0.0,2.0,48,0.00,,---,0.00,VWS V13.00,2013-07-14 18:30:00,
2013-07-14 11:35:00,72.7,51.3,30.11,NE,51,0.0,2.0,47,0.00,,---,0.00,VWS V13.00,2013-07-14 18:35:00,
2013-07-14 11:40:00,72.7,50.8,30.10,NE,48,0.0,1.0,46,0.00,,---,0.00,VWS V13.00,2013-07-14 18:40:00,
2013-07-14 11:45:00,73.5,50.3,30.10,North,350,0.0,1.0,44,0.00,,---,0.00,VWS V13.00,2013-07-14 18:45:00,
2013-07-14 11:50:00,73.0,49.2,30.10,NW,306,0.0,1.0,43,0.00,,---,0.00,VWS V13.00,2013-07-14 18:50:00,
2013-07-14 11:55:00,72.7,50.8,30.10,NE,54,0.0,3.0,46,0.00,,---,0.00,VWS V13.00,2013-07-14 18:55:00,
2013-07-14 12:00:00,73.9,50.6,30.10,NE,37,0.0,3.0,44,0.00,,---,0.00,VWS V13.00,2013-07-14 19:00:00,
2013-07-14 12:05:00,74.2,49.7,30.10,NNE,30,0.0,3.0,42,0.00,,---,0.00,VWS V13.00,2013-07-14 19:05:00,
2013-07-14 12:10:00,74.6,50.0,30.10,NNE,30,0.0,0.0,42,0.00,,---,0.00,VWS V13.00,2013-07-14 19:10:00,
2013-07-14 12:15:00,76.0,51.9,30.10,NNW,343,0.0,1.0,43,0.00,,---,0.00,VWS V13.00,2013-07-14 19:15:00,
2013-07-14 12:20:00,75.4,50.7,30.10,North,357,0.0,1.0,42,0.00,,---,0.00,VWS V13.00,2013-07-14 19:20:00,
2013-07-14 12:25:00,75.1,49.8,30.10,NNE,13,1.0,1.0,41,0.00,,---,0.00,VWS V13.00,2013-07-14 19:25:00,
2013-07-14 12:30:00,75.1,49.8,30.10,North,353,0.0,2.0,41,0.00,,---,0.00,VWS V13.00,2013-07-14 19:30:00,
2013-07-14 12:35:00,74.9,48.3,30.10,ENE,65,0.0,5.0,39,0.00,,---,0.00,VWS V13.00,2013-07-14 19:35:00,
2013-07-14 12:40:00,76.1,47.2,30.09,NNE,13,1.0,1.0,36,0.00,,---,0.00,VWS V13.00,2013-07-14 19:40:00,
2013-07-14 12:45:00,77.0,50.2,30.09,NNE,24,0.0,1.0,39,0.00,,---,0.00,VWS V13.00,2013-07-14 19:45:00,
2013-07-14 12:50:00,76.8,47.1,30.09,NNW,329,0.0,3.0,35,0.00,,---,0.00,VWS V13.00,2013-07-14 19:50:00,
2013-07-14 12:55:00,77.0,49.5,30.09,SE,133,0.0,3.0,38,0.00,,---,0.00,VWS V13.00,2013-07-14 19:55:00,
2013-07-14 13:00:00,77.7,53.5,30.09,SE,127,0.0,3.0,43,0.00,,---,0.00,VWS V13.00,2013-07-14 20:00:00,
2013-07-14 13:05:00,78.6,47.9,30.09,ESE,120,0.0,3.0,34,0.00,,---,0.00,VWS V13.00,2013-07-14 20:05:00,
2013-07-14 13:10:00,77.9,48.8,30.09,SE,127,0.0,0.0,36,0.00,,---,0.00,VWS V13.00,2013-07-14 20:10:00,
2013-07-14 13:15:00,77.4,46.1,30.09,North,6,0.0,5.0,33,0.00,,---,0.00,VWS V13.00,2013-07-14 20:15:00,
2013-07-14 13:20:00,77.2,45.9,30.09,ENE,58,0.0,5.0,33,0.00,,---,0.00,VWS V13.00,2013-07-14 20:20:00,
2013-07-14 13:25:00,77.4,46.9,30.09,NE,44,0.0,5.0,34,0.00,,---,0.00,VWS V13.00,2013-07-14 20:25:00,
2013-07-14 13:30:00,78.6,50.2,30.09,NNW,337,0.0,5.0,37,0.00,,---,0.00,VWS V13.00,2013-07-14 20:30:00,
2013-07-14 13:35:00,78.6,44.6,30.09,ENE,58,0.0,5.0,30,0.00,,---,0.00,VWS V13.00,2013-07-14 20:35:00,
2013-07-14 13:40:00,79.2,46.8,30.08,NE,55,0.0,0.0,32,0.00,,---,0.00,VWS V13.00,2013-07-14 20:40:00,
2013-07-14 13:45:00,78.1,42.4,30.08,SE,138,0.0,5.0,28,0.00,,---,0.00,VWS V13.00,2013-07-14 20:45:00,
2013-07-14 13:50:00,77.7,44.7,30.08,North,0,0.0,5.0,31,0.00,,---,0.00,VWS V13.00,2013-07-14 20:50:00,
2013-07-14 13:55:00,79.6,48.8,30.08,North,10,0.0,5.0,34,0.00,,---,0.00,VWS V13.00,2013-07-14 20:55:00,
2013-07-14 14:00:00,79.4,47.0,30.08,NW,315,0.0,5.0,32,0.00,,---,0.00,VWS V13.00,2013-07-14 21:00:00,
2013-07-14 14:05:00,80.1,48.4,30.08,NW,315,0.0,5.0,33,0.00,,---,0.00,VWS V13.00,2013-07-14 21:05:00,
2013-07-14 14:10:00,80.7,46.4,30.07,NNW,332,0.0,1.0,30,0.00,,---,0.00,VWS V13.00,2013-07-14 21:10:00,
2013-07-14 14:15:00,80.9,45.7,30.07,NNW,329,0.0,1.0,29,0.00,,---,0.00,VWS V13.00,2013-07-14 21:15:00,
2013-07-14 14:20:00,80.5,46.2,30.07,West,277,0.0,1.0,30,0.00,,---,0.00,VWS V13.00,2013-07-14 21:20:00,
2013-07-14 14:25:00,80.7,45.5,30.07,NNW,336,0.0,3.0,29,0.00,,---,0.00,VWS V13.00,2013-07-14 21:25:00,
2013-07-14 14:30:00,79.0,42.2,30.07,South,182,0.0,3.0,27,0.00,,---,0.00,VWS V13.00,2013-07-14 21:30:00,
2013-07-14 14:35:00,79.9,47.4,30.07,NNE,27,0.0,3.0,32,0.00,,---,0.00,VWS V13.00,2013-07-14 21:35:00,
2013-07-14 14:40:00,80.1,45.0,30.06,NNE,13,0.0,1.0,29,0.00,,---,0.00,VWS V13.00,2013-07-14 21:40:00,
2013-07-14 14:45:00,79.4,43.5,30.06,NNE,31,0.0,1.0,28,0.00,,---,0.00,VWS V13.00,2013-07-14 21:45:00,
2013-07-14 14:50:00,80.3,46.9,30.06,NNE,31,0.0,1.0,31,0.00,,---,0.00,VWS V13.00,2013-07-14 21:50:00,
2013-07-14 14:55:00,80.9,43.8,30.06,North,353,3.0,3.0,27,0.00,,---,0.00,VWS V13.00,2013-07-14 21:55:00,
2013-07-14 15:00:00,79.6,44.6,30.06,NE,47,0.0,3.0,29,0.00,,---,0.00,VWS V13.00,2013-07-14 22:00:00,
2013-07-14 15:05:00,80.9,47.5,30.06,NNE,20,0.0,3.0,31,0.00,,---,0.00,VWS V13.00,2013-07-14 22:05:00,
2013-07-14 15:10:00,80.5,46.2,30.06,ENE,72,0.0,0.0,30,0.00,,---,0.00,VWS V13.00,2013-07-14 22:10:00,
2013-07-14 15:15:00,81.2,45.0,30.06,ENE,72,0.0,1.0,28,0.00,,---,0.00,VWS V13.00,2013-07-14 22:15:00,
2013-07-14 15:20:00,80.9,47.5,30.06,NE,48,0.0,1.0,31,0.00,,---,0.00,VWS V13.00,2013-07-14 22:20:00,
2013-07-14 15:25:00,81.4,45.2,30.05,WNW,288,0.0,2.0,28,0.00,,---,0.00,VWS V13.00,2013-07-14 22:25:00,
2013-07-14 15:30:00,79.9,43.9,30.05,North,0,0.0,2.0,28,0.00,,---,0.00,VWS V13.00,2013-07-14 22:30:00,
2013-07-14 15:35:00,80.3,45.2,30.05,SE,130,0.0,2.0,29,0.00,,---,0.00,VWS V13.00,2013-07-14 22:35:00,
2013-07-14 15:40:00,80.5,46.2,30.05,NNW,329,0.0,2.0,30,0.00,,---,0.00,VWS V13.00,2013-07-14 22:40:00,
2013-07-14 15:45:00,79.9,43.9,30.05,SSW,205,0.0,3.0,28,0.00,,---,0.00,VWS V13.00,2013-07-14 22:45:00,
2013-07-14 15:50:00,79.4,44.4,30.05,SSW,205,0.0,3.0,29,0.00,,---,0.00,VWS V13.00,2013-07-14 22:50:00,
2013-07-14 15:55:00,80.3,45.2,30.04,SE,141,0.0,3.0,29,0.00,,---,0.00,VWS V13.00,2013-07-14 22:55:00,
2013-07-14 16:00:00,80.5,43.5,30.04,ENE,65,1.0,3.0,27,0.00,,---,0.00,VWS V13.00,2013-07-14 23:00:00,
2013-07-14 16:05:00,80.3,44.3,30.04,North,357,1.0,3.0,28,0.00,,---,0.00,VWS V13.00,2013-07-14 23:05:00,
2013-07-14 16:10:00,79.6,43.7,30.03,NNW,339,0.0,1.0,28,0.00,,---,0.00,VWS V13.00,2013-07-14 23:10:00,
2013-07-14 16:15:00,80.7,49.8,30.03,NNW,339,0.0,1.0,34,0.00,,---,0.00,VWS V13.00,2013-07-14 23:15:00,
2013-07-14 16:20:00,81.6,48.9,30.03,NE,44,0.0,1.0,32,0.00,,---,0.00,VWS V13.00,2013-07-14 23:20:00,
2013-07-14 16:25:00,80.7,44.6,30.03,NE,40,0.0,1.0,28,0.00,,---,0.00,VWS V13.00,2013-07-14 23:25:00,
2013-07-14 16:30:00,81.6,46.3,30.03,NE,40,0.0,1.0,29,0.00,,---,0.00,VWS V13.00,2013-07-14 23:30:00,
2013-07-14 16:35:00,81.6,45.4,30.03,North,353,0.0,1.0,28,0.00,,---,0.00,VWS V13.00,2013-07-14 23:35:00,
2013-07-14 16:40:00,80.5,43.5,30.02,NE,51,0.0,3.0,27,0.00,,---,0.00,VWS V13.00,2013-07-14 23:40:00,
2013-07-14 16:45:00,79.8,43.8,30.02,NE,48,0.0,3.0,28,0.00,,---,0.00,VWS V13.00,2013-07-14 23:45:00,
2013-07-14 16:50:00,80.3,46.9,30.02,NE,44,0.0,3.0,31,0.00,,---,0.00,VWS V13.00,2013-07-14 23:50:00,
2013-07-14 16:55:00,80.7,44.6,30.02,ENE,58,0.0,3.0,28,0.00,,---,0.00,VWS V13.00,2013-07-14 23:55:00,
2013-07-14 17:00:00,81.1,44.0,30.02,ENE,75,1.0,3.0,27,0.00,,---,0.00,VWS V13.00,2013-07-15 00:00:00,
2013-07-14 17:05:00,81.1,44.9,30.02,North,350,0.0,3.0,28,0.00,,---,0.00,VWS V13.00,2013-07-15 00:05:00,
2013-07-14 17:10:00,81.1,44.9,30.01,NNE,27,0.0,3.0,28,0.00,,---,0.00,VWS V13.00,2013-07-15 00:10:00,
2013-07-14 17:15:00,81.2,46.0,30.01,NNE,27,0.0,3.0,29,0.00,,---,0.00,VWS V13.00,2013-07-15 00:15:00,
2013-07-14 17:20:00,81.8,46.5,30.01,NNE,27,0.0,3.0,29,0.00,,---,0.00,VWS V13.00,2013-07-15 00:20:00,
2013-07-14 17:25:00,82.0,45.7,30.01,NNE,27,0.0,3.0,28,0.00,,---,0.00,VWS V13.00,2013-07-15 00:25:00,
2013-07-14 17:30:00,82.0,45.7,30.01,NNE,27,0.0,3.0,28,0.00,,---,0.00,VWS V13.00,2013-07-15 00:30:00,
2013-07-14 17:35:00,82.2,45.9,30.01,NNE,27,0.0,3.0,28,0.00,,---,0.00,VWS V13.00,2013-07-15 00:35:00,
2013-07-14 17:40:00,82.2,46.8,30.00,NNE,27,0.0,1.0,29,0.00,,---,0.00,VWS V13.00,2013-07-15 00:40:00,
2013-07-14 17:45:00,82.0,44.8,30.00,NNE,27,0.0,1.0,27,0.00,,---,0.00,VWS V13.00,2013-07-15 00:45:00,
2013-07-14 17:50:00,81.8,45.5,30.00,NNE,27,0.0,1.0,28,0.00,,---,0.00,VWS V13.00,2013-07-15 00:50:00,
2013-07-14 17:55:00,82.0,44.8,30.00,ENE,58,0.0,1.0,27,0.00,,---,0.00,VWS V13.00,2013-07-15 00:55:00,
2013-07-14 18:00:00,82.0,44.8,30.00,North,349,0.0,1.0,27,0.00,,---,0.00,VWS V13.00,2013-07-15 01:00:00,
2013-07-14 18:05:00,81.8,45.5,30.00,North,349,0.0,1.0,28,0.00,,---,0.00,VWS V13.00,2013-07-15 01:05:00,
2013-07-14 18:10:00,81.6,45.4,30.00,North,349,0.0,0.0,28,0.00,,---,0.00,VWS V13.00,2013-07-15 01:10:00,
2013-07-14 18:15:00,81.1,44.0,30.00,North,349,0.0,0.0,27,0.00,,---,0.00,VWS V13.00,2013-07-15 01:15:00,
2013-07-14 18:20:00,80.9,43.8,30.00,North,349,0.0,0.0,27,0.00,,---,0.00,VWS V13.00,2013-07-15 01:20:00,
2013-07-14 18:25:00,80.5,43.5,30.00,North,349,0.0,0.0,27,0.00,,---,0.00,VWS V13.00,2013-07-15 01:25:00,
2013-07-14 18:30:00,80.1,43.1,30.00,North,350,0.0,0.0,27,0.00,,---,0.00,VWS V13.00,2013-07-15 01:30:00,
2013-07-14 18:35:00,79.8,45.6,30.00,North,350,0.0,0.0,30,0.00,,---,0.00,VWS V13.00,2013-07-15 01:35:00,
2013-07-14 18:40:00,79.6,44.6,30.00,North,350,0.0,0.0,29,0.00,,---,0.00,VWS V13.00,2013-07-15 01:40:00,
2013-07-14 18:45:00,79.2,46.0,30.00,North,350,0.0,0.0,31,0.00,,---,0.00,VWS V13.00,2013-07-15 01:45:00,
2013-07-14 18:50:00,78.8,48.9,30.00,North,350,0.0,0.0,35,0.00,,---,0.00,VWS V13.00,2013-07-15 01:50:00,
2013-07-14 18:55:00,78.5,40.8,29.99,SSE,158,0.0,0.0,26,0.00,,---,0.00,VWS V13.00,2013-07-15 01:55:00,
2013-07-14 19:00:00,78.3,45.2,29.99,SSE,158,0.0,0.0,31,0.00,,---,0.00,VWS V13.00,2013-07-15 02:00:00,
2013-07-14 19:05:00,78.3,46.9,29.99,SSE,158,0.0,0.0,33,0.00,,---,0.00,VWS V13.00,2013-07-15 02:05:00,
2013-07-14 19:10:00,78.1,47.5,29.99,SSE,158,0.0,0.0,34,0.00,,---,0.00,VWS V13.00,2013-07-15 02:10:00,
2013-07-14 19:15:00,78.1,48.2,29.99,SSE,158,0.0,0.0,35,0.00,,---,0.00,VWS V13.00,2013-07-15 02:15:00,
2013-07-14 19:20:00,78.1,47.5,29.99,SSE,158,0.0,0.0,34,0.00,,---,0.00,VWS V13.00,2013-07-15 02:20:00,
2013-07-14 19:25:00,78.1,46.7,29.99,SSE,158,0.0,0.0,33,0.00,,---,0.00,VWS V13.00,2013-07-15 02:25:00,
2013-07-14 19:30:00,77.9,46.5,29.99,SSE,158,0.0,0.0,33,0.00,,---,0.00,VWS V13.00,2013-07-15 02:30:00,
2013-07-14 19:35:00,77.7,47.9,29.99,SSE,158,0.0,0.0,35,0.00,,---,0.00,VWS V13.00,2013-07-15 02:35:00,
2013-07-14 19:40:00,77.6,48.6,29.99,SSE,158,0.0,0.0,36,0.00,,---,0.00,VWS V13.00,2013-07-15 02:40:00,
2013-07-14 19:45:00,77.2,47.5,29.99,SSE,158,0.0,0.0,35,0.00,,---,0.00,VWS V13.00,2013-07-15 02:45:00,
2013-07-14 19:50:00,76.7,49.2,29.99,SSE,158,0.0,0.0,38,0.00,,---,0.00,VWS V13.00,2013-07-15 02:50:00,
2013-07-14 19:55:00,76.3,48.8,29.99,SSE,158,0.0,0.0,38,0.00,,---,0.00,VWS V13.00,2013-07-15 02:55:00,
2013-07-14 20:00:00,75.6,48.9,29.99,SSE,158,0.0,0.0,39,0.00,,---,0.00,VWS V13.00,2013-07-15 03:00:00,
2013-07-14 20:05:00,74.9,49.0,29.99,SSE,158,0.0,0.0,40,0.00,,---,0.00,VWS V13.00,2013-07-15 03:05:00,
2013-07-14 20:10:00,74.4,51.7,29.99,SSE,158,0.0,0.0,45,0.00,,---,0.00,VWS V13.00,2013-07-15 03:10:00,
2013-07-14 20:15:00,73.9,51.2,29.99,SSE,158,0.0,0.0,45,0.00,,---,0.00,VWS V13.00,2013-07-15 03:15:00,
2013-07-14 20:20:00,73.3,51.3,29.99,SSE,158,0.0,0.0,46,0.00,,---,0.00,VWS V13.00,2013-07-15 03:20:00,
2013-07-14 20:25:00,72.8,51.4,29.98,SSE,158,0.0,0.0,47,0.00,,---,0.00,VWS V13.00,2013-07-15 03:25:00,
2013-07-14 20:30:00,72.3,51.0,29.98,SSE,158,0.0,0.0,47,0.00,,---,0.00,VWS V13.00,2013-07-15 03:30:00,
2013-07-14 20:35:00,71.8,51.1,29.98,SSE,158,0.0,0.0,48,0.00,,---,0.00,VWS V13.00,2013-07-15 03:35:00,
2013-07-14 20:40:00,71.5,51.9,29.98,SSE,158,0.0,0.0,50,0.00,,---,0.00,VWS V13.00,2013-07-15 03:40:00,
2013-07-14 20:45:00,70.9,51.9,29.98,SSE,158,0.0,0.0,51,0.00,,---,0.00,VWS V13.00,2013-07-15 03:45:00,
2013-07-14 20:50:00,70.6,53.2,29.98,SSE,158,0.0,0.0,54,0.00,,---,0.00,VWS V13.00,2013-07-15 03:50:00,
2013-07-14 20:55:00,70.3,53.9,29.99,SSE,158,0.0,0.0,56,0.00,,---,0.00,VWS V13.00,2013-07-15 03:55:00,
2013-07-14 21:00:00,69.9,54.0,29.99,SSE,158,0.0,0.0,57,0.00,,---,0.00,VWS V13.00,2013-07-15 04:00:00,
2013-07-14 21:01:00,69.8,53.9,29.99,SSE,158,0.0,0.0,57,0.00,,---,0.00,VWS V13.00,2013-07-15 04:01:00,
2013-07-14 21:06:00,69.3,53.9,29.99,SSE,158,0.0,0.0,58,0.00,,---,0.00,VWS V13.00,2013-07-15 04:06:00,
2013-07-14 21:11:00,68.8,53.9,29.99,SSE,158,0.0,0.0,59,0.00,,---,0.00,VWS V13.00,2013-07-15 04:11:00,
2013-07-14 21:16:00,68.3,52.5,29.99,SSE,158,0.0,0.0,57,0.00,,---,0.00,VWS V13.00,2013-07-15 04:16:00,
2013-07-14 21:21:00,67.9,51.6,29.99,SSE,158,0.0,0.0,56,0.00,,---,0.00,VWS V13.00,2013-07-15 04:21:00,
2013-07-14 21:26:00,67.4,51.2,29.99,SSE,158,0.0,0.0,56,0.00,,---,0.00,VWS V13.00,2013-07-15 04:26:00,
2013-07-14 21:31:00,67.1,51.4,29.99,SSE,158,0.0,0.0,57,0.00,,---,0.00,VWS V13.00,2013-07-15 04:31:00,
2013-07-14 21:36:00,66.8,51.6,30.00,SSE,158,0.0,0.0,58,0.00,,---,0.00,VWS V13.00,2013-07-15 04:36:00,
2013-07-14 21:41:00,66.4,51.7,30.00,SSE,158,0.0,0.0,59,0.00,,---,0.00,VWS V13.00,2013-07-15 04:41:00,
2013-07-14 21:46:00,66.1,51.8,30.00,SSE,158,0.0,0.0,60,0.00,,---,0.00,VWS V13.00,2013-07-15 04:46:00,
2013-07-14 21:51:00,65.8,51.5,30.01,SSE,158,0.0,0.0,60,0.00,,---,0.00,VWS V13.00,2013-07-15 04:51:00,
2013-07-14 21:56:00,65.3,51.5,30.01,SSE,158,0.0,0.0,61,0.00,,---,0.00,VWS V13.00,2013-07-15 04:56:00,
2013-07-14 22:01:00,65.0,51.2,30.01,SSE,158,0.0,0.0,61,0.00,,---,0.00,VWS V13.00,2013-07-15 05:01:00,
2013-07-14 22:06:00,64.7,51.4,30.01,SSE,158,0.0,0.0,62,0.00,,---,0.00,VWS V13.00,2013-07-15 05:06:00,
2013-07-14 22:11:00,64.2,50.5,30.01,SSE,158,0.0,0.0,61,0.00,,---,0.00,VWS V13.00,2013-07-15 05:11:00,
2013-07-14 22:16:00,63.7,51.3,30.01,SSE,158,0.0,0.0,64,0.00,,---,0.00,VWS V13.00,2013-07-15 05:16:00,
2013-07-14 22:21:00,63.4,51.0,30.01,SSE,158,0.0,0.0,64,0.00,,---,0.00,VWS V13.00,2013-07-15 05:21:00,
2013-07-14 22:26:00,63.1,50.7,30.01,SSE,158,0.0,0.0,64,0.00,,---,0.00,VWS V13.00,2013-07-15 05:26:00,
2013-07-14 22:31:00,62.7,51.2,30.01,SSE,158,0.0,0.0,66,0.00,,---,0.00,VWS V13.00,2013-07-15 05:31:00,
2013-07-14 22:36:00,62.4,51.3,30.01,SSE,158,0.0,0.0,67,0.00,,---,0.00,VWS V13.00,2013-07-15 05:36:00,
2013-07-14 22:41:00,62.0,51.3,30.01,SSE,158,0.0,0.0,68,0.00,,---,0.00,VWS V13.00,2013-07-15 05:41:00,
2013-07-14 22:46:00,61.5,50.8,30.01,SSE,158,0.0,0.0,68,0.00,,---,0.00,VWS V13.00,2013-07-15 05:46:00,
2013-07-14 22:51:00,61.2,50.6,30.01,SSE,158,0.0,0.0,68,0.00,,---,0.00,VWS V13.00,2013-07-15 05:51:00,
2013-07-14 22:56:00,60.9,50.3,30.01,SSE,158,0.0,0.0,68,0.00,,---,0.00,VWS V13.00,2013-07-15 05:56:00,
2013-07-14 23:01:00,60.5,50.3,30.01,SSE,158,0.0,0.0,69,0.00,,---,0.00,VWS V13.00,2013-07-15 06:01:00,
2013-07-14 23:06:00,60.2,50.4,30.01,SSE,158,0.0,0.0,70,0.00,,---,0.00,VWS V13.00,2013-07-15 06:06:00,
2013-07-14 23:11:00,60.1,50.3,30.01,SSE,158,0.0,0.0,70,0.00,,---,0.00,VWS V13.00,2013-07-15 06:11:00,
2013-07-14 23:16:00,59.8,50.4,30.01,SSE,158,0.0,0.0,71,0.00,,---,0.00,VWS V13.00,2013-07-15 06:16:00,
2013-07-14 23:21:00,59.6,50.2,30.02,SSE,158,0.0,0.0,71,0.00,,---,0.00,VWS V13.00,2013-07-15 06:21:00,
2013-07-14 23:26:00,59.3,49.9,30.02,SSE,158,0.0,0.0,71,0.00,,---,0.00,VWS V13.00,2013-07-15 06:26:00,
2013-07-14 23:31:00,59.2,49.8,30.02,SSE,158,0.0,0.0,71,0.00,,---,0.00,VWS V13.00,2013-07-15 06:31:00,
2013-07-14 23:36:00,58.9,49.9,30.02,SSE,158,0.0,0.0,72,0.00,,---,0.00,VWS V13.00,2013-07-15 06:36:00,
2013-07-14 23:41:00,58.7,49.7,30.02,SSE,158,0.0,0.0,72,0.00,,---,0.00,VWS V13.00,2013-07-15 06:41:00,
2013-07-14 23:46:00,58.4,49.4,30.02,SSE,158,0.0,0.0,72,0.00,,---,0.00,VWS V13.00,2013-07-15 06:46:00,
2013-07-14 23:51:00,58.1,49.5,30.02,SSE,158,0.0,0.0,73,0.00,,---,0.00,VWS V13.00,2013-07-15 06:51:00,
2013-07-14 23:56:00,58.0,49.8,30.02,SSE,158,0.0,0.0,74,0.00,,---,0.00,VWS V13.00,2013-07-15 06:56:00,